Atlantic - Newfoundland: Past 24 Hour Conditions

 

Twillingate

10:30 AM NDT 29 August 2014
This table is a summary of hourly weather conditions for the past 24 hours.
Date / Time
(NDT)
Wind(knots) Conditions Visibility(km) Pressure(kPa) Air tempC) Relative humidity(%) Dew pointC)
29 August 2014
10:30 NE 20 gust 27 N/A N/A 101.1 8 85 6
9:30 NE 22 gust 30 N/A N/A 101.0 9 75 5
8:30 NE 21 gust 27 N/A N/A 101.0 9 76 5
7:30 NE 19 gust 27 N/A N/A 101.0 9 76 5
6:30 NE 21 gust 28 N/A N/A 100.9 9 74 5
5:30 NE 20 gust 27 N/A N/A 100.9 9 77 5
4:30 NE 16 gust 26 N/A N/A 100.9 9 81 6
3:30 ENE 20 gust 28 N/A N/A 101.0 9 85 7
2:30 ENE 17 gust 26 N/A N/A 101.0 9 83 6
1:30 NE 14 gust 23 N/A N/A 101.0 9 84 7
0:30 NE 15 gust 23 N/A N/A 101.1 9 83 7
28 August 2014
23:30 ENE 14 gust 24 N/A N/A 101.1 9 83 6
22:30 ENE 15 gust 28 N/A N/A 101.1 9 86 7
21:30 ENE 20 gust 26 N/A N/A 101.2 9 84 6
20:30 NE 16 gust 28 N/A N/A 101.2 9 90 7
19:30 ENE 15 gust 27 N/A N/A 101.1 9 89 7
18:30 ENE 20 gust 25 N/A N/A 101.2 9 87 7
17:30 ENE 19 gust 28 N/A N/A 101.2 10 81 7
16:30 ENE 19 gust 25 N/A N/A 101.2 10 82 7
15:30 ENE 20 gust 25 N/A N/A 101.1 10 83 7
14:30 ENE 14 gust 21 N/A N/A 101.2 10 85 7
13:30 ENE 18 gust 23 N/A N/A 101.2 9 89 8
12:30 ENE 18 N/A N/A 101.3 10 86 7
11:30 ENE 14 gust 19 N/A N/A 101.3 10 85 8
10:30 ENE 13 gust 18 N/A N/A 101.3 10 84 7
 
Map of Atlantic - Newfoundland marine weather areas Southwestern Grand Banks - 44138 Banquereau - 44139 Tail of the Bank - 44140 Nickerson Bank - 44251 Northeast Burgeo Bank - 44255 Blanc-Sablon Airport Cap Whittle Chevery Natashquan Airport Heath Point Miscou Island Grand Étang Ingonish Beach North Mountain St.Paul Island J.A. Douglas McCurdy Sydney Airport Charlottetown Airport East Point North Cape Argentia Bonavista Burgeo Cape Race Corner Brook Daniel's Harbour Englee Ferolle Point La Scie Port aux Basques Rocky Harbour Sagona Island St. Anthony Airport St. John's Int'l Airport St. Lawrence Stephenville Airport Twillingate Winterland Wreckhouse Cartwright Airport Mary's Harbour Grates Cove Pool's Island Marticot Island Long Pond Îles de la Madeleine Airport
Legend: buoyBuoy land stationLand Station